DW1482 Weather Reports


Display with metric or nautical units.
time (UTC)temp
F
wind
direction
speed
MPH
gust
MPH
rain 1hr
in
rain 24hr
in
rain mn
in
humidity
%
barometer
mb
20260906210029 81 240 0.0 2.0 0.00 0.00 0.00 64 1014.1
20260906204528 80 242 0.0 5.0 0.00 0.00 0.00 64 1014.1
20260906203027 79 239 0.0 3.0 0.00 0.00 0.00 65 1014.0
20260906201503 79 288 0.0 7.0 0.00 0.00 0.00 66 1014.1
20260906200005 78 257 2.0 8.0 0.00 0.00 0.00 68 1014.3
20260906194508 78 265 3.0 10.0 0.00 0.00 0.00 69 1014.8
20260906193014 77 259 4.0 10.0 0.00 0.00 0.00 69 1014.9
20260906191503 77 281 2.0 6.0 0.00 0.00 0.00 70 1015.3
20260906190005 76 291 0.0 8.0 0.00 0.00 0.00 71 1014.8
20260906184508 77 284 5.0 11.0 0.00 0.00 0.00 69 1014.8
20260906183052 77 257 2.0 8.0 0.00 0.00 0.00 70 1015.1
20260906181534 77 259 4.0 12.0 0.00 0.00 0.00 69 1015.3
20260906180003 77 338 5.0 12.0 0.00 0.00 0.00 69 1015.0
20260906174512 78 263 6.0 17.0 0.00 0.00 0.00 70 1014.6
20260906173018 78 257 6.0 14.0 0.00 0.00 0.00 75 1014.7
20260906171524 78 257 7.0 16.0 0.00 0.00 0.00 80 1015.0
20260906170006 78 217 6.0 13.0 0.00 0.00 0.00 84 1015.1
20260906164513 78 215 4.0 16.0 0.00 0.00 0.00 86 1015.3
20260906163018 78 180 6.0 14.0 0.00 0.00 0.00 86 1015.3
20260906161539 78 240 5.0 13.0 0.00 0.00 0.00 86 1015.2
20260906160007 78 252 2.0 14.0 0.00 0.00 0.00 86 1015.1
20260906154512 78 254 3.0 10.0 0.00 0.00 0.00 86 1015.0
20260906153035 78 240 0.0 4.0 0.00 0.00 0.00 86 1014.9
20260906151530 78 136 0.0 5.0 0.00 0.00 0.00 86 1014.3
20260906150005 78 160 0.0 7.0 0.00 0.00 0.00 86 1014.7
20260906144521 78 138 1.0 6.0 0.00 0.00 0.00 86 1014.4
20260906143022 77 149 0.0 1.0 0.00 0.00 0.00 86 1014.6
20260906141530 76 149 0.0 0.0 0.00 0.00 0.00 86 1014.6
20260906140036 76 147 0.0 0.0 0.00 0.00 0.00 86 1014.4
20260906134516 75 147 0.0 0.0 0.00 0.00 0.00 87 1014.3
20260906133031 74 147 0.0 0.0 0.00 0.00 0.00 88 1014.3
20260906131538 73 147 0.0 0.0 0.00 0.00 0.00 90 1014.5
20260906130035 72 147 0.0 0.0 0.00 0.00 0.00 90 1014.3
20260906124521 72 147 0.0 5.0 0.00 0.00 0.00 90 1013.8
20260906123030 71 124 0.0 3.0 0.00 0.00 0.00 90 1013.4
20260906121537 71 127 1.0 4.0 0.00 0.00 0.00 90 1013.2
20260906120032 71 134 0.0 4.0 0.00 0.00 0.00 90 1013.2
20260906114530 71 142 0.0 3.0 0.00 0.00 0.00 89 1013.1
20260906113004 71 147 0.0 0.0 0.00 0.00 0.00 89 1013.2
20260906111504 71 146 0.0 0.0 0.00 0.00 0.00 88 1013.4
20260906110004 71 146 0.0 0.0 0.00 0.01 0.00 88 1013.4
20260906104504 72 146 0.0 2.0 0.00 0.01 0.00 87 1013.4
20260906103011 72 150 1.0 3.0 0.00 0.01 0.00 87 1013.6
20260906101504 72 153 0.0 0.0 0.00 0.01 0.00 86 1013.8
20260906100004 72 153 0.0 2.0 0.00 0.01 0.00 86 1013.9
20260906094503 72 153 0.0 0.0 0.00 0.01 0.00 86 1013.9
20260906093003 72 153 0.0 0.0 0.00 0.01 0.00 86 1013.9
20260906091503 72 153 0.0 0.0 0.00 0.02 0.00 86 1013.9
20260906090006 72 153 0.0 0.0 0.00 0.02 0.00 85 1013.9
20260906084504 72 153 0.0 0.0 0.00 0.02 0.00 84 1013.9
20260906083006 72 153 0.0 0.0 0.00 0.03 0.00 84 1013.9
20260906081513 73 153 0.0 0.0 0.00 0.03 0.00 83 1013.8
20260906080007 73 153 0.0 1.0 0.00 0.03 0.00 83 1013.4
20260906074507 73 169 0.0 2.0 0.00 0.03 0.00 82 1013.4
20260906073008 73 223 0.0 0.0 0.00 0.03 0.00 82 1013.5
20260906071524 74 223 0.0 0.0 0.00 0.03 0.00 81 1013.2
20260906070012 74 223 0.0 0.0 0.00 0.03 0.00 81 1013.3
20260906064512 74 223 0.0 0.0 0.00 0.03 0.00 81 1013.3
20260906063011 74 227 0.0 0.0 0.00 0.03 0.00 80 1013.3
20260906061514 74 227 0.0 3.0 0.00 0.03 0.00 79 1013.3
20260906060022 75 142 0.0 0.0 0.00 0.03 0.00 78 1013.2
20260906054516 75 142 0.0 0.0 0.00 0.03 0.00 77 1013.1
20260906053010 75 142 1.0 8.0 0.00 0.03 0.00 76 1013.1
20260906051517 76 146 0.0 5.0 0.00 0.03 0.00 76 1013.2
20260906050018 76 140 1.0 5.0 0.00 0.03 0.00 76 1013.2
20260906044521 76 130 0.0 6.0 0.00 0.03 0.03 76 1013.2
20260906043024 76 130 1.0 6.0 0.00 0.03 0.03 75 1013.3
20260906041503 77 112 1.0 4.0 0.00 0.03 0.03 75 1013.1
20260906040004 78 120 1.0 7.0 0.00 0.03 0.03 73 1013.1
20260906034507 79 53 1.0 6.0 0.00 0.03 0.03 71 1013.0
20260906033013 78 80 0.0 5.0 0.00 0.03 0.03 72 1012.4
20260906031515 78 112 0.0 6.0 0.00 0.03 0.03 74 1012.4
20260906030004 79 150 1.0 5.0 0.00 0.03 0.03 74 1012.9
20260906024509 79 159 0.0 0.0 0.00 0.03 0.03 72 1013.1
20260906023013 80 159 0.0 0.0 0.00 0.03 0.03 71 1013.0
20260906021517 80 159 0.0 0.0 0.00 0.03 0.03 70 1013.3
20260906020004 80 158 0.0 0.0 0.00 0.03 0.03 70 1013.0
20260906014508 81 158 0.0 0.0 0.00 0.03 0.03 69 1012.6
20260906013016 81 158 0.0 0.0 0.00 0.03 0.03 67 1012.8
20260906011516 82 158 0.0 0.0 0.00 0.03 0.03 65 1012.9
20260906010005 83 158 0.0 0.0 0.00 0.03 0.03 63 1013.1
20260906004512 83 158 0.0 3.0 0.00 0.03 0.03 63 1013.5
20260906003018 84 137 0.0 0.0 0.00 0.03 0.03 61 1013.4
20260906001540 84 137 0.0 0.0 0.00 0.03 0.03 59 1013.2
20260906000005 85 137 0.0 0.0 0.00 0.03 0.03 58 1013.0
20260905234514 86 137 0.0 3.0 0.00 0.03 0.03 56 1012.9
20260905233024 87 136 0.0 3.0 0.00 0.03 0.03 54 1012.7
20260905231528 88 147 0.0 4.0 0.00 0.03 0.03 52 1012.3
20260905230008 89 136 2.0 7.0 0.00 0.03 0.03 50 1011.8
20260905224514 89 150 4.0 12.0 0.00 0.03 0.03 49 1011.3
20260905223041 90 132 5.0 10.0 0.00 0.03 0.03 49 1011.2
20260905221529 90 161 2.0 10.0 0.00 0.03 0.03 49 1011.4
20260905220028 90 157 3.0 10.0 0.00 0.03 0.03 50 1011.6
20260905214518 90 143 2.0 12.0 0.00 0.03 0.03 49 1011.6
20260905213028 90 136 4.0 10.0 0.00 0.03 0.03 50 1011.7
20260905211527 91 61 3.0 9.0 0.00 0.03 0.03 50 1011.8